KC3BBT-13 Weather Reports


time (UTC)temp
C
wind
direction
speed
KPH
gust
KPH
rain 1hr
cm
rain 24hr
cm
rain mn
cm
humidity
%
barometer
mb
20260510071326 12 0 0.0 0.0 0.00 0.00 0.00 88 1011.4
20260510070005 12 0 0.0 0.0 0.00 0.00 0.00 88 1011.3
20260510064716 12 0 0.0 0.0 0.00 0.00 0.00 88 1011.2
20260510063401 12 0 0.0 0.0 0.00 0.00 0.00 87 1011.0
20260510062237 13 0 0.0 0.0 0.00 0.00 0.00 87 1011.1
20260510062201 13 0 0.0 0.0 0.00 0.00 0.00 87 1011.1
20260510060700 13 0 0.0 0.0 0.00 0.00 0.00 87 1011.1
20260510055341 13 0 0.0 0.0 0.00 0.00 0.00 86 1011.0
20260510054046 13 0 0.0 0.0 0.00 0.00 0.00 86 1011.1
20260510052726 13 0 0.0 0.0 0.00 0.00 0.00 85 1011.2
20260510051526 14 0 0.0 0.0 0.00 0.00 0.00 85 1011.2
20260510050316 14 0 0.0 0.0 0.00 0.00 0.00 85 1011.1
20260510044911 15 0 0.0 0.0 0.00 0.00 0.00 85 1011.0
20260510043711 15 0 0.0 3.2 0.00 0.00 0.00 85 1011.1
20260510042421 15 0 0.0 0.0 0.00 0.00 0.00 84 1011.1
20260510041041 15 0 0.0 0.0 0.00 0.00 0.00 83 1011.0
20260510035706 15 0 0.0 0.0 0.00 0.00 0.00 83 1011.0
20260510034235 15 0 0.0 0.0 0.00 0.00 0.00 83 1011.0
20260510033011 15 0 0.0 0.0 0.00 0.00 0.00 82 1010.9
20260510031751 15 0 0.0 0.0 0.00 0.00 0.00 81 1010.9
20260510030521 16 0 0.0 0.0 0.00 0.00 0.00 81 1010.9
20260510030446 16 0 0.0 0.0 0.00 0.00 0.00 81 1010.9
20260510025300 16 0 0.0 0.0 0.00 0.00 0.00 79 1010.9
20260510025226 16 0 0.0 0.0 0.00 0.00 0.00 79 1010.9
20260510023916 16 0 0.0 0.0 0.00 0.00 0.00 78 1010.8
20260510022642 16 0 0.0 0.0 0.00 0.00 0.00 78 1010.7
20260510021351 17 0 0.0 0.0 0.00 0.00 0.00 77 1010.5
20260510020151 17 0 0.0 0.0 0.00 0.00 0.00 76 1010.5
20260510014725 17 0 0.0 1.6 0.00 0.00 0.00 76 1010.4
20260510013502 17 0 0.0 3.2 0.00 0.00 0.00 76 1010.2
20260510012226 17 0 0.0 0.0 0.00 0.00 0.00 74 1010.0
20260510011024 17 71 4.8 4.8 0.00 0.00 0.00 73 1009.8
20260510005618 18 0 0.0 0.0 0.00 0.00 0.00 71 1009.6
20260510004341 18 0 0.0 1.6 0.00 0.00 0.00 70 1009.5
20260510002921 18 0 0.0 0.0 0.00 0.00 0.00 67 1009.5
20260510001638 20 0 0.0 0.0 0.00 0.00 0.00 64 1009.4
20260510000306 21 0 0.0 0.0 0.00 0.00 0.00 61 1009.3
20260509234813 21 0 0.0 0.0 0.00 0.00 0.00 58 1009.2
20260509233346 22 0 0.0 0.0 0.00 0.00 0.00 56 1009.1
20260509232213 22 0 0.0 0.0 0.00 0.00 0.00 55 1009.0
20260509232109 22 0 0.0 0.0 0.00 0.00 0.00 55 1009.0
20260509230826 22 0 0.0 0.0 0.00 0.00 0.00 55 1009.0
20260509225727 22 0 0.0 0.0 0.00 0.00 0.00 57 1009.1
20260509225602 22 0 0.0 0.0 0.00 0.00 0.00 57 1009.1
20260509224306 22 204 1.6 1.6 0.00 0.00 0.00 54 1009.1
20260509223055 22 0 0.0 3.2 0.00 0.00 0.00 52 1008.9
20260509221751 22 0 0.0 4.8 0.00 0.00 0.00 52 1009.1
20260509220336 23 0 0.0 0.0 0.00 0.00 0.00 51 1009.0
20260509215001 23 0 0.0 0.0 0.00 0.00 0.00 50 1009.0
20260509213611 23 275 1.6 3.2 0.00 0.00 0.00 51 1009.0
20260509212131 23 0 0.0 3.2 0.00 0.00 0.00 50 1009.0
20260509210646 24 0 0.0 9.7 0.00 0.00 0.00 49 1009.1
20260509205516 23 0 0.0 12.9 0.00 0.00 0.00 50 1009.0
20260509205331 23 0 0.0 12.9 0.00 0.00 0.00 50 1009.0
20260509204032 23 290 1.6 4.8 0.00 0.00 0.00 51 1008.9
20260509202656 23 272 4.8 4.8 0.00 0.00 0.00 51 1008.7
20260509201422 23 0 0.0 11.3 0.00 0.00 0.00 52 1009.0
20260509200219 23 0 0.0 12.9 0.00 0.00 0.00 52 1009.3
20260509195011 23 162 17.7 17.7 0.00 0.00 0.00 52 1009.4
20260509193800 22 240 9.7 9.7 0.00 0.00 0.00 55 1009.6
20260509192536 22 0 0.0 1.6 0.00 0.00 0.00 56 1010.0
20260509191226 21 0 0.0 11.3 0.00 0.00 0.00 58 1010.1
20260509185925 21 213 1.6 11.3 0.00 0.00 0.00 59 1010.0
20260509185811 21 213 1.6 11.3 0.00 0.00 0.00 59 1010.0
20260509184356 20 203 4.8 16.1 0.00 0.00 0.00 60 1010.2
20260509183111 20 0 0.0 0.0 0.00 0.00 0.00 61 1010.3
20260509181636 20 0 0.0 0.0 0.00 0.00 0.00 62 1010.5
20260509180322 20 0 0.0 0.0 0.00 0.00 0.00 59 1011.0
20260509175015 20 0 0.0 0.0 0.00 0.00 0.00 56 1010.9
20260509173631 21 0 0.0 0.0 0.00 0.00 0.00 57 1011.0
20260509172406 21 0 0.0 6.4 0.00 0.00 0.00 56 1011.0
20260509171006 20 0 0.0 1.6 0.00 0.00 0.00 58 1011.3
20260509165641 20 0 0.0 0.0 0.00 0.00 0.00 58 1011.3
20260509164221 20 257 4.8 11.3 0.00 0.00 0.00 58 1011.5
20260509163027 20 267 1.6 9.7 0.00 0.00 0.00 58 1011.4
20260509162901 20 267 1.6 9.7 0.00 0.00 0.00 58 1011.4
20260509161626 20 0 0.0 1.6 0.00 0.00 0.00 58 1011.4
20260509160209 19 150 4.8 8.0 0.00 0.00 0.00 61 1011.5
20260509154941 18 213 12.9 12.9 0.00 0.00 0.00 60 1011.8
20260509153511 18 0 0.0 0.0 0.00 0.00 0.00 59 1011.8
20260509152319 18 0 0.0 16.1 0.00 0.00 0.00 62 1011.7
20260509152148 18 0 0.0 16.1 0.00 0.00 0.00 62 1011.7
20260509150838 17 0 0.0 8.0 0.00 0.00 0.00 64 1012.0
20260509150706 17 0 0.0 8.0 0.00 0.00 0.00 64 1012.0
20260509145410 17 0 0.0 6.4 0.00 0.00 0.00 65 1012.1
20260509144121 16 208 6.4 6.4 0.00 0.00 0.00 66 1012.4
20260509142746 16 0 0.0 8.0 0.00 0.00 0.00 66 1012.6
20260509141321 15 0 0.0 9.7 0.00 0.00 0.00 67 1012.7
20260509135851 15 0 0.0 9.7 0.00 0.00 0.00 66 1012.4
20260509134747 15 0 0.0 1.6 0.00 0.00 0.00 67 1012.6
20260509134631 15 0 0.0 1.6 0.00 0.00 0.00 67 1012.6
20260509133216 15 0 0.0 1.6 0.00 0.00 0.00 67 1012.6
20260509131921 15 0 0.0 11.3 0.00 0.00 0.00 66 1012.7
20260509130706 15 217 6.4 9.7 0.00 0.00 0.00 66 1012.7
20260509125431 15 202 4.8 14.5 0.00 0.00 0.00 65 1012.7
20260509124222 15 251 4.8 14.5 0.00 0.00 0.00 64 1012.4
20260509122854 15 202 1.6 11.3 0.00 0.00 0.00 65 1012.4
20260509122736 15 202 1.6 11.3 0.00 0.00 0.00 65 1012.4
20260509121320 15 186 9.7 16.1 0.00 0.00 0.00 63 1012.4
20260509115905 15 169 8.0 12.9 0.00 0.00 0.00 62 1012.4
20260509114511 15 0 0.0 3.2 0.00 0.00 0.00 61 1012.5
20260509113031 15 200 6.4 8.0 0.00 0.00 0.00 61 1012.3
20260509111951 15 0 0.0 6.4 0.00 0.00 0.00 60 1012.2
20260509111706 15 0 0.0 6.4 0.00 0.00 0.00 60 1012.2
20260509110451 15 195 1.6 12.9 0.00 0.00 0.00 58 1012.2
20260509105036 15 0 0.0 8.0 0.00 0.00 0.00 57 1012.2
20260509103556 15 0 0.0 9.7 0.00 0.00 0.00 56 1012.1
20260509102136 15 0 0.0 0.0 0.00 0.00 0.00 55 1011.9
20260509100831 15 0 0.0 3.2 0.00 0.00 0.00 55 1012.0
20260509095411 15 0 0.0 3.2 0.00 0.00 0.00 55 1011.7
20260509094135 15 0 0.0 3.2 0.00 0.00 0.00 54 1011.8
20260509092716 15 0 0.0 6.4 0.00 0.00 0.00 55 1012.1
20260509091453 15 0 0.0 4.8 0.00 0.00 0.00 54 1012.0
20260509090506 15 0 0.0 9.7 0.00 0.00 0.00 55 1012.0
20260509090308 15 0 0.0 9.7 0.00 0.00 0.00 55 1012.0
20260509090221 15 0 0.0 9.7 0.00 0.00 0.00 55 1012.0
20260509084931 15 0 0.0 8.0 0.00 0.00 0.00 56 1012.0
20260509083656 14 0 0.0 0.0 0.00 0.00 0.00 57 1012.2
20260509082219 14 0 0.0 0.0 0.00 0.00 0.00 59 1012.5
20260509080949 14 0 0.0 11.3 0.00 0.00 0.00 60 1012.6
20260509075511 14 0 0.0 0.0 0.00 0.00 0.00 59 1012.8
20260509074247 14 217 6.4 16.1 0.00 0.00 0.00 58 1012.8
20260509072826 15 0 0.0 12.9 0.00 0.00 0.00 58 1012.8